Regional Weather Roundup
Issued by NWS Goodland, KS

Home | Current Version | Previous Version | Text Only | Print | Product List | Glossary Off
Versions: 1 2 3 4 5 6 7 8 9 10 11 12 13 14 15 16 17 18 19 20 21 22 23 24 25 26 27 28 29 30 31 32 33 34 35 36 37 38 39 40 41 42 43 44 45 46 47 48 49 50

000
ASUS43 KGLD 301359
RWRGLD

GOODLAND FORECAST AREA HOURLY WEATHER ROUNDUP
NATIONAL WEATHER SERVICE GOODLAND KS
800 AM MDT WED JUL 30 2014

...OFFICIAL OBSERVATIONS...

CITY           SKY/WX    TMP DP  RH WIND       PRES   REMARKS
GOODLAND KS    LGT RAIN  60  58  92 E14       30.23R
HILL CITY KS   LGT RAIN  65  59  81 E7        30.17R
IMPERIAL NEB   CLOUDY    64  60  87 NE3       30.24R
MCCOOK NEB     CLOUDY    64  62  93 N6        30.21R
AKRON CO       CLOUDY    59  57  93 E8        30.28S FOG
BURLINGTON CO  CLOUDY    60  56  86 E15G22    30.23R
LIMON CO       CLOUDY    58  56  93 NE12      30.29R
$$

...UNOFFICIAL OBSERVATIONS...

CITY           SKY/WX    TMP DP  RH WIND       PRES   REMARKS
COLBY KS       CLOUDY    63  63 100 N6        30.21R
GOVE KS          N/A     63  32  31 MISG        N/A
NORTON KS      CLOUDY    63  61  94 NE6       30.18R
WAKEENEY KS      N/A     65  58  78 MISG        N/A
TRENTON NEB      N/A     63  32  31 CALM        N/A
KIT CARSON CO    N/A     60  57  90 NE12G20     N/A
YUMA CO          N/A     60  60 100 E7          N/A
$$


USA.gov is the U.S. government's official web portal to all federal, state and local government web resources and services.